Time,TemperatureF,DewpointF,PressureIn,WindDirection,WindDirectionDegrees,WindSpeedMPH,WindSpeedGustMPH,Humidity,HourlyPrecipIn,Conditions,Clouds,dailyrainin,SoftwareType,DateUTC
2013-02-20 00:00:00,32.4,30.6,29.90,SSW,205,0.0,0.0,93,0.00,,---,0.00,VWS V13.00,2013-02-20 08:00:00,
2013-02-20 00:05:00,32.4,30.6,29.90,SSW,205,0.0,2.0,93,0.00,,---,0.00,VWS V13.00,2013-02-20 08:05:00,
2013-02-20 00:10:00,32.3,30.5,29.90,SSW,205,0.0,2.0,93,0.00,,---,0.00,VWS V13.00,2013-02-20 08:10:00,
2013-02-20 00:15:00,32.3,30.5,29.90,SSW,205,0.0,2.0,93,0.00,,---,0.00,VWS V13.00,2013-02-20 08:15:00,
2013-02-20 00:20:00,32.2,30.4,29.90,SSW,205,1.0,2.0,93,0.00,,---,0.00,VWS V13.00,2013-02-20 08:20:00,
2013-02-20 00:25:00,32.2,30.4,29.90,SSW,205,2.0,3.0,93,0.00,,---,0.00,VWS V13.00,2013-02-20 08:25:00,
2013-02-20 00:30:00,32.1,30.3,29.90,SSW,205,0.0,0.0,93,0.00,,---,0.00,VWS V13.00,2013-02-20 08:30:00,
2013-02-20 00:35:00,32.1,30.3,29.90,SSW,205,0.0,0.0,93,0.00,,---,0.00,VWS V13.00,2013-02-20 08:35:00,
2013-02-20 00:40:00,32.1,30.3,29.90,SSW,205,0.0,2.0,93,0.00,,---,0.00,VWS V13.00,2013-02-20 08:40:00,
2013-02-20 00:45:00,32.1,30.3,29.90,SSW,205,0.0,2.0,93,0.00,,---,0.00,VWS V13.00,2013-02-20 08:45:00,
2013-02-20 00:50:00,32.0,30.2,29.90,SSW,205,0.0,2.0,93,0.00,,---,0.00,VWS V13.00,2013-02-20 08:50:00,
2013-02-20 00:55:00,31.9,30.1,29.91,SSW,205,0.0,2.0,93,0.00,,---,0.00,VWS V13.00,2013-02-20 08:55:00,
2013-02-20 01:00:00,31.9,30.1,29.91,SSW,205,0.0,3.0,93,0.00,,---,0.00,VWS V13.00,2013-02-20 09:00:00,
2013-02-20 01:05:00,31.8,30.0,29.91,SSW,205,2.0,3.0,93,0.00,,---,0.00,VWS V13.00,2013-02-20 09:05:00,
2013-02-20 01:10:00,31.8,30.0,29.91,SSW,198,3.0,4.0,93,0.00,,---,0.00,VWS V13.00,2013-02-20 09:10:00,
2013-02-20 01:15:00,31.7,29.9,29.91,SSW,198,1.0,4.0,93,0.00,,---,0.00,VWS V13.00,2013-02-20 09:15:00,
2013-02-20 01:20:00,31.7,29.9,29.91,SSW,196,0.0,4.0,93,0.00,,---,0.00,VWS V13.00,2013-02-20 09:20:00,
2013-02-20 01:25:00,31.7,29.9,29.91,SSW,196,0.0,4.0,93,0.00,,---,0.00,VWS V13.00,2013-02-20 09:25:00,
2013-02-20 01:30:00,31.7,29.9,29.91,SSW,195,0.0,1.0,93,0.00,,---,0.00,VWS V13.00,2013-02-20 09:30:00,
2013-02-20 01:35:00,31.6,29.8,29.91,SSW,195,0.0,2.0,93,0.00,,---,0.00,VWS V13.00,2013-02-20 09:35:00,
2013-02-20 01:40:00,31.6,29.8,29.91,SSW,196,0.0,2.0,93,0.00,,---,0.00,VWS V13.00,2013-02-20 09:40:00,
2013-02-20 01:45:00,31.6,29.8,29.91,SSW,196,0.0,2.0,93,0.00,,---,0.00,VWS V13.00,2013-02-20 09:45:00,
2013-02-20 01:50:00,31.6,29.8,29.92,SSW,196,1.0,2.0,93,0.00,,---,0.00,VWS V13.00,2013-02-20 09:50:00,
2013-02-20 01:55:00,31.6,29.8,29.92,SSW,196,0.0,3.0,93,0.00,,---,0.00,VWS V13.00,2013-02-20 09:55:00,
2013-02-20 02:00:00,31.5,29.7,29.92,SSW,196,0.0,0.0,93,0.00,,---,0.00,VWS V13.00,2013-02-20 10:00:00,
2013-02-20 02:05:00,31.6,29.8,29.92,SSW,196,1.0,1.0,93,0.00,,---,0.00,VWS V13.00,2013-02-20 10:05:00,
2013-02-20 02:10:00,31.6,29.8,29.92,SSW,195,0.0,1.0,93,0.00,,---,0.00,VWS V13.00,2013-02-20 10:10:00,
2013-02-20 02:15:00,31.6,29.8,29.92,SSW,195,0.0,1.0,93,0.00,,---,0.00,VWS V13.00,2013-02-20 10:15:00,
2013-02-20 02:20:00,31.6,29.8,29.92,SSW,196,0.0,1.0,93,0.00,,---,0.00,VWS V13.00,2013-02-20 10:20:00,
2013-02-20 02:25:00,31.6,29.8,29.92,SSW,196,1.0,1.0,93,0.00,,---,0.00,VWS V13.00,2013-02-20 10:25:00,
2013-02-20 02:30:00,31.6,29.8,29.92,SSW,196,0.0,0.0,93,0.00,,---,0.00,VWS V13.00,2013-02-20 10:30:00,
2013-02-20 02:35:00,31.5,29.7,29.92,SSW,196,0.0,2.0,93,0.00,,---,0.00,VWS V13.00,2013-02-20 10:35:00,
2013-02-20 02:40:00,31.6,29.8,29.92,SSW,195,0.0,2.0,93,0.00,,---,0.00,VWS V13.00,2013-02-20 10:40:00,
2013-02-20 02:45:00,31.6,29.8,29.92,SSW,196,0.0,3.0,93,0.00,,---,0.00,VWS V13.00,2013-02-20 10:45:00,
2013-02-20 02:50:00,31.6,29.8,29.92,SSW,196,2.0,3.0,93,0.00,,---,0.00,VWS V13.00,2013-02-20 10:50:00,
2013-02-20 02:55:00,31.5,29.7,29.92,SSW,195,0.0,3.0,93,0.00,,---,0.00,VWS V13.00,2013-02-20 10:55:00,
2013-02-20 03:00:00,31.6,29.8,29.92,SSW,196,0.0,0.0,93,0.00,,---,0.00,VWS V13.00,2013-02-20 11:00:00,
2013-02-20 03:05:00,31.6,29.8,29.92,SSW,196,0.0,3.0,93,0.00,,---,0.00,VWS V13.00,2013-02-20 11:05:00,
2013-02-20 03:10:00,31.6,29.8,29.93,SSW,195,0.0,3.0,93,0.00,,---,0.00,VWS V13.00,2013-02-20 11:10:00,
2013-02-20 03:15:00,31.5,29.7,29.93,SSW,195,0.0,3.0,93,0.00,,---,0.00,VWS V13.00,2013-02-20 11:15:00,
2013-02-20 03:20:00,31.5,29.7,29.93,SSW,196,1.0,3.0,93,0.00,,---,0.00,VWS V13.00,2013-02-20 11:20:00,
2013-02-20 03:25:00,31.5,29.7,29.93,SSW,196,0.0,3.0,93,0.00,,---,0.00,VWS V13.00,2013-02-20 11:25:00,
2013-02-20 03:30:00,31.5,29.7,29.93,SSW,196,0.0,2.0,93,0.00,,---,0.00,VWS V13.00,2013-02-20 11:30:00,
2013-02-20 03:35:00,31.5,29.7,29.93,SSW,195,0.0,2.0,93,0.00,,---,0.00,VWS V13.00,2013-02-20 11:35:00,
2013-02-20 03:40:00,31.5,29.7,29.93,SSW,195,0.0,2.0,93,0.00,,---,0.00,VWS V13.00,2013-02-20 11:40:00,
2013-02-20 03:45:00,31.5,29.7,29.93,SSW,196,1.0,2.0,93,0.00,,---,0.00,VWS V13.00,2013-02-20 11:45:00,
2013-02-20 03:50:00,31.5,29.7,29.93,SSW,196,0.0,2.0,93,0.00,,---,0.00,VWS V13.00,2013-02-20 11:50:00,
2013-02-20 03:55:00,31.5,29.7,29.93,SSW,196,0.0,2.0,93,0.00,,---,0.00,VWS V13.00,2013-02-20 11:55:00,
2013-02-20 04:00:00,31.5,29.7,29.93,SSW,196,0.0,0.0,93,0.00,,---,0.00,VWS V13.00,2013-02-20 12:00:00,
2013-02-20 04:05:00,31.5,30.0,29.93,SSW,196,0.0,1.0,94,0.00,,---,0.00,VWS V13.00,2013-02-20 12:05:00,
2013-02-20 04:10:00,31.5,30.0,29.93,SSW,195,0.0,1.0,94,0.00,,---,0.00,VWS V13.00,2013-02-20 12:10:00,
2013-02-20 04:15:00,31.5,30.0,29.94,SSW,195,0.0,1.0,94,0.00,,---,0.00,VWS V13.00,2013-02-20 12:15:00,
2013-02-20 04:20:00,31.5,30.0,29.94,SSW,196,0.0,1.0,94,0.00,,---,0.00,VWS V13.00,2013-02-20 12:20:00,
2013-02-20 04:25:00,31.5,30.0,29.94,SSW,196,2.0,3.0,94,0.00,,---,0.00,VWS V13.00,2013-02-20 12:25:00,
2013-02-20 04:30:00,31.6,30.1,29.94,South,186,0.0,3.0,94,0.00,,---,0.00,VWS V13.00,2013-02-20 12:30:00,
2013-02-20 04:35:00,31.6,30.1,29.94,South,186,1.0,3.0,94,0.00,,---,0.00,VWS V13.00,2013-02-20 12:35:00,
2013-02-20 04:40:00,31.6,30.1,29.94,South,186,3.0,3.0,94,0.00,,---,0.00,VWS V13.00,2013-02-20 12:40:00,
2013-02-20 04:45:00,31.6,30.1,29.94,South,186,1.0,3.0,94,0.00,,---,0.00,VWS V13.00,2013-02-20 12:45:00,
2013-02-20 04:50:00,31.6,30.1,29.94,South,186,0.0,3.0,94,0.00,,---,0.00,VWS V13.00,2013-02-20 12:50:00,
2013-02-20 04:55:00,31.6,30.1,29.94,South,186,0.0,3.0,94,0.00,,---,0.00,VWS V13.00,2013-02-20 12:55:00,
2013-02-20 05:00:00,31.6,30.1,29.95,South,186,0.0,0.0,94,0.00,,---,0.00,VWS V13.00,2013-02-20 13:00:00,
2013-02-20 05:05:00,31.6,30.1,29.95,South,186,0.0,0.0,94,0.00,,---,0.00,VWS V13.00,2013-02-20 13:05:00,
2013-02-20 05:10:00,31.6,30.1,29.95,South,186,0.0,1.0,94,0.00,,---,0.00,VWS V13.00,2013-02-20 13:10:00,
2013-02-20 05:15:00,31.6,30.1,29.95,South,186,0.0,1.0,94,0.00,,---,0.00,VWS V13.00,2013-02-20 13:15:00,
2013-02-20 05:20:00,31.6,30.1,29.95,South,186,0.0,1.0,94,0.00,,---,0.00,VWS V13.00,2013-02-20 13:20:00,
2013-02-20 05:25:00,31.6,30.1,29.95,South,186,0.0,1.0,94,0.00,,---,0.00,VWS V13.00,2013-02-20 13:25:00,
2013-02-20 05:30:00,31.6,30.1,29.95,South,186,0.0,0.0,94,0.00,,---,0.00,VWS V13.00,2013-02-20 13:30:00,
2013-02-20 05:35:00,31.5,30.0,29.95,South,186,1.0,2.0,94,0.00,,---,0.00,VWS V13.00,2013-02-20 13:35:00,
2013-02-20 05:39:00,31.5,30.0,29.95,South,186,0.0,2.0,94,0.00,,---,0.00,VWS V13.00,2013-02-20 13:39:00,
2013-02-20 05:44:00,31.5,30.0,29.95,South,186,2.0,2.0,94,0.00,,---,0.00,VWS V13.00,2013-02-20 13:44:00,
2013-02-20 05:49:00,31.5,30.0,29.95,South,186,0.0,3.0,94,0.00,,---,0.00,VWS V13.00,2013-02-20 13:49:00,
2013-02-20 05:54:00,31.5,30.0,29.95,South,186,1.0,3.0,94,0.00,,---,0.00,VWS V13.00,2013-02-20 13:54:00,
2013-02-20 05:59:00,31.5,30.0,29.95,South,186,0.0,0.0,94,0.00,,---,0.00,VWS V13.00,2013-02-20 13:59:00,
2013-02-20 06:04:00,31.4,29.9,29.95,South,186,0.0,2.0,94,0.00,,---,0.00,VWS V13.00,2013-02-20 14:04:00,
2013-02-20 06:09:00,31.4,29.9,29.96,South,186,0.0,2.0,94,0.00,,---,0.00,VWS V13.00,2013-02-20 14:09:00,
2013-02-20 06:14:00,31.4,29.9,29.96,South,186,0.0,2.0,94,0.00,,---,0.00,VWS V13.00,2013-02-20 14:14:00,
2013-02-20 06:19:00,31.4,29.9,29.96,South,186,0.0,2.0,94,0.00,,---,0.00,VWS V13.00,2013-02-20 14:19:00,
2013-02-20 06:24:00,31.4,29.9,29.96,South,186,0.0,2.0,94,0.00,,---,0.00,VWS V13.00,2013-02-20 14:24:00,
2013-02-20 06:29:00,31.4,29.9,29.96,South,186,0.0,0.0,94,0.00,,---,0.00,VWS V13.00,2013-02-20 14:29:00,
2013-02-20 06:34:00,31.3,29.8,29.97,South,186,1.0,1.0,94,0.00,,---,0.00,VWS V13.00,2013-02-20 14:34:00,
2013-02-20 06:39:00,31.3,29.8,29.97,South,186,0.0,2.0,94,0.00,,---,0.00,VWS V13.00,2013-02-20 14:39:00,
2013-02-20 06:44:00,31.2,29.7,29.97,South,186,0.0,2.0,94,0.00,,---,0.00,VWS V13.00,2013-02-20 14:44:00,
2013-02-20 06:49:00,31.2,29.7,29.97,South,186,0.0,2.0,94,0.00,,---,0.00,VWS V13.00,2013-02-20 14:49:00,
2013-02-20 06:54:00,31.2,29.7,29.97,South,186,1.0,2.0,94,0.00,,---,0.00,VWS V13.00,2013-02-20 14:54:00,
2013-02-20 06:59:00,31.2,29.7,29.97,South,186,0.0,1.0,94,0.00,,---,0.00,VWS V13.00,2013-02-20 14:59:00,
2013-02-20 07:04:00,31.2,29.7,29.97,South,186,0.0,1.0,94,0.00,,---,0.00,VWS V13.00,2013-02-20 15:04:00,
2013-02-20 07:09:00,31.2,29.7,29.97,South,186,0.0,1.0,94,0.00,,---,0.00,VWS V13.00,2013-02-20 15:09:00,
2013-02-20 07:14:00,31.2,29.7,29.97,South,186,0.0,1.0,94,0.00,,---,0.00,VWS V13.00,2013-02-20 15:14:00,
2013-02-20 07:19:00,31.2,29.7,29.98,South,186,0.0,1.0,94,0.00,,---,0.00,VWS V13.00,2013-02-20 15:19:00,
2013-02-20 07:24:00,31.2,29.7,29.98,South,186,0.0,1.0,94,0.00,,---,0.00,VWS V13.00,2013-02-20 15:24:00,
2013-02-20 07:29:00,31.3,29.8,29.98,South,186,0.0,0.0,94,0.00,,---,0.00,VWS V13.00,2013-02-20 15:29:00,
2013-02-20 07:34:00,31.3,29.8,29.98,South,186,0.0,1.0,94,0.00,,---,0.00,VWS V13.00,2013-02-20 15:34:00,
2013-02-20 07:39:00,31.4,29.9,29.98,South,186,0.0,1.0,94,0.00,,---,0.00,VWS V13.00,2013-02-20 15:39:00,
2013-02-20 07:44:00,31.4,29.9,29.98,South,186,0.0,1.0,94,0.00,,---,0.00,VWS V13.00,2013-02-20 15:44:00,
2013-02-20 07:49:00,31.5,30.0,29.98,South,186,1.0,1.0,94,0.00,,---,0.00,VWS V13.00,2013-02-20 15:49:00,
2013-02-20 07:54:00,31.6,30.1,29.98,South,186,0.0,2.0,94,0.00,,---,0.00,VWS V13.00,2013-02-20 15:54:00,
2013-02-20 07:59:00,31.6,30.1,29.98,South,186,0.0,0.0,94,0.00,,---,0.00,VWS V13.00,2013-02-20 15:59:00,
2013-02-20 08:04:00,31.7,30.2,29.98,South,186,0.0,0.0,94,0.00,,---,0.00,VWS V13.00,2013-02-20 16:04:00,
2013-02-20 08:09:00,31.7,30.2,29.98,South,186,0.0,0.0,94,0.00,,---,0.00,VWS V13.00,2013-02-20 16:09:00,
2013-02-20 08:14:00,31.8,30.3,29.98,South,186,0.0,0.0,94,0.00,,---,0.00,VWS V13.00,2013-02-20 16:14:00,
2013-02-20 08:19:00,32.0,30.5,29.98,South,186,0.0,0.0,94,0.00,,---,0.00,VWS V13.00,2013-02-20 16:19:00,
2013-02-20 08:24:00,32.0,30.5,29.98,South,186,0.0,0.0,94,0.00,,---,0.00,VWS V13.00,2013-02-20 16:24:00,
2013-02-20 08:29:00,32.0,30.5,29.98,South,186,0.0,0.0,94,0.00,,---,0.00,VWS V13.00,2013-02-20 16:29:00,
2013-02-20 08:34:00,32.1,30.6,29.98,South,186,0.0,0.0,94,0.00,,---,0.00,VWS V13.00,2013-02-20 16:34:00,
2013-02-20 08:39:00,32.2,30.7,29.98,South,186,0.0,0.0,94,0.00,,---,0.00,VWS V13.00,2013-02-20 16:39:00,
2013-02-20 08:44:00,32.3,30.8,29.98,South,186,0.0,0.0,94,0.00,,---,0.00,VWS V13.00,2013-02-20 16:44:00,
2013-02-20 08:49:00,32.4,30.9,29.99,South,186,0.0,0.0,94,0.00,,---,0.00,VWS V13.00,2013-02-20 16:49:00,
2013-02-20 08:54:00,32.6,31.1,29.99,South,186,0.0,0.0,94,0.00,,---,0.00,VWS V13.00,2013-02-20 16:54:00,
2013-02-20 08:59:00,32.8,31.3,29.99,South,186,0.0,0.0,94,0.00,,---,0.00,VWS V13.00,2013-02-20 16:59:00,
2013-02-20 09:04:00,33.0,31.5,29.99,South,186,0.0,1.0,94,0.00,,---,0.00,VWS V13.00,2013-02-20 17:04:00,
2013-02-20 09:09:00,33.2,31.7,29.99,South,186,2.0,3.0,94,0.00,,---,0.00,VWS V13.00,2013-02-20 17:09:00,
2013-02-20 09:14:00,33.4,31.9,29.99,South,186,0.0,3.0,94,0.00,,---,0.00,VWS V13.00,2013-02-20 17:14:00,
2013-02-20 09:19:00,33.5,32.0,29.99,South,186,0.0,3.0,94,0.00,,---,0.00,VWS V13.00,2013-02-20 17:19:00,
2013-02-20 09:24:00,33.7,32.2,29.98,South,186,0.0,3.0,94,0.00,,---,0.00,VWS V13.00,2013-02-20 17:24:00,
2013-02-20 09:29:00,33.8,32.3,29.98,South,186,0.0,1.0,94,0.00,,---,0.00,VWS V13.00,2013-02-20 17:29:00,
2013-02-20 09:34:00,33.9,32.4,29.98,South,186,0.0,2.0,94,0.00,,---,0.00,VWS V13.00,2013-02-20 17:34:00,
2013-02-20 09:39:00,34.1,32.6,29.98,South,186,0.0,2.0,94,0.00,,---,0.00,VWS V13.00,2013-02-20 17:39:00,
2013-02-20 09:44:00,34.1,32.3,29.98,South,186,0.0,2.0,93,0.00,,---,0.00,VWS V13.00,2013-02-20 17:44:00,
2013-02-20 09:49:00,34.0,31.9,29.98,South,186,0.0,2.0,92,0.00,,---,0.00,VWS V13.00,2013-02-20 17:49:00,
2013-02-20 09:54:00,34.1,31.8,29.98,South,186,0.0,2.0,91,0.00,,---,0.00,VWS V13.00,2013-02-20 17:54:00,
2013-02-20 09:59:00,34.3,31.7,29.98,South,186,0.0,0.0,90,0.00,,---,0.00,VWS V13.00,2013-02-20 17:59:00,
2013-02-20 10:04:00,34.4,31.5,29.99,South,186,1.0,1.0,89,0.00,,---,0.00,VWS V13.00,2013-02-20 18:04:00,
2013-02-20 10:09:00,34.4,31.5,29.98,South,186,2.0,4.0,89,0.00,,---,0.00,VWS V13.00,2013-02-20 18:09:00,
2013-02-20 10:14:00,34.7,31.8,29.98,South,186,1.0,4.0,89,0.00,,---,0.00,VWS V13.00,2013-02-20 18:14:00,
2013-02-20 10:19:00,34.8,31.9,29.98,South,172,0.0,4.0,89,0.00,,---,0.00,VWS V13.00,2013-02-20 18:19:00,
2013-02-20 10:24:00,34.9,32.0,29.98,South,172,0.0,4.0,89,0.00,,---,0.00,VWS V13.00,2013-02-20 18:24:00,
2013-02-20 10:29:00,35.1,31.9,29.98,South,172,1.0,2.0,88,0.00,,---,0.00,VWS V13.00,2013-02-20 18:29:00,
2013-02-20 10:34:00,35.2,32.0,29.98,South,172,1.0,3.0,88,0.00,,---,0.00,VWS V13.00,2013-02-20 18:34:00,
2013-02-20 10:39:00,35.3,32.1,29.98,South,172,2.0,3.0,88,0.00,,---,0.00,VWS V13.00,2013-02-20 18:39:00,
2013-02-20 10:44:00,35.4,32.2,29.98,South,172,0.0,3.0,88,0.00,,---,0.00,VWS V13.00,2013-02-20 18:44:00,
2013-02-20 10:49:00,35.5,32.3,29.99,South,171,3.0,4.0,88,0.00,,---,0.00,VWS V13.00,2013-02-20 18:49:00,
2013-02-20 10:54:00,35.7,32.2,29.98,South,171,3.0,4.0,87,0.00,,---,0.00,VWS V13.00,2013-02-20 18:54:00,
2013-02-20 10:59:00,35.8,32.0,29.99,SSE,167,3.0,3.0,86,0.00,,---,0.00,VWS V13.00,2013-02-20 18:59:00,
2013-02-20 11:04:00,36.0,32.2,29.99,SSE,167,0.0,4.0,86,0.00,,---,0.00,VWS V13.00,2013-02-20 19:04:00,
2013-02-20 11:09:00,36.0,31.6,29.99,SSE,163,2.0,4.0,84,0.00,,---,0.00,VWS V13.00,2013-02-20 19:09:00,
2013-02-20 11:14:00,36.1,31.5,29.99,SSE,163,4.0,4.0,83,0.00,,---,0.00,VWS V13.00,2013-02-20 19:14:00,
2013-02-20 11:19:00,36.1,31.5,29.99,SE,126,1.0,4.0,83,0.00,,---,0.00,VWS V13.00,2013-02-20 19:19:00,
2013-02-20 11:24:00,36.0,31.4,29.99,ESE,123,1.0,4.0,83,0.00,,---,0.00,VWS V13.00,2013-02-20 19:24:00,
2013-02-20 11:29:00,36.0,31.6,29.98,ESE,123,0.0,0.0,84,0.00,,---,0.00,VWS V13.00,2013-02-20 19:29:00,
2013-02-20 11:34:00,36.2,32.4,29.99,ESE,123,2.0,3.0,86,0.00,,---,0.00,VWS V13.00,2013-02-20 19:34:00,
2013-02-20 11:39:00,36.3,32.2,29.99,ESE,122,1.0,4.0,85,0.00,,---,0.00,VWS V13.00,2013-02-20 19:39:00,
2013-02-20 11:44:00,36.4,32.0,29.99,SSE,152,3.0,5.0,84,0.00,,---,0.00,VWS V13.00,2013-02-20 19:44:00,
2013-02-20 11:49:00,36.5,31.8,29.99,SE,139,3.0,7.0,83,0.00,,---,0.00,VWS V13.00,2013-02-20 19:49:00,
2013-02-20 11:54:00,36.5,31.5,29.99,SE,138,3.0,7.0,82,0.00,,---,0.00,VWS V13.00,2013-02-20 19:54:00,
2013-02-20 11:59:00,36.5,31.8,29.99,ESE,120,0.0,0.0,83,0.00,,---,0.00,VWS V13.00,2013-02-20 19:59:00,
2013-02-20 12:04:00,36.5,31.5,29.98,ESE,116,0.0,5.0,82,0.00,,---,0.00,VWS V13.00,2013-02-20 20:04:00,
2013-02-20 12:09:00,36.5,31.5,29.98,SSE,157,2.0,7.0,82,0.00,,---,0.00,VWS V13.00,2013-02-20 20:09:00,
2013-02-20 12:14:00,36.8,32.4,29.98,ESE,111,2.0,7.0,84,0.00,,---,0.00,VWS V13.00,2013-02-20 20:14:00,
2013-02-20 12:19:00,37.6,32.9,29.97,ESE,121,5.0,7.0,83,0.00,,---,0.00,VWS V13.00,2013-02-20 20:19:00,
2013-02-20 12:24:00,37.8,32.2,29.97,SE,136,3.0,8.0,80,0.00,,---,0.00,VWS V13.00,2013-02-20 20:24:00,
2013-02-20 12:29:00,37.9,33.2,29.97,SE,137,4.0,4.0,83,0.00,,---,0.00,VWS V13.00,2013-02-20 20:29:00,
2013-02-20 12:34:00,37.5,32.2,29.98,SE,128,5.0,12.0,81,0.00,,---,0.00,VWS V13.00,2013-02-20 20:34:00,
2013-02-20 12:39:00,37.1,32.4,29.98,SE,137,2.0,12.0,83,0.00,,---,0.00,VWS V13.00,2013-02-20 20:39:00,
2013-02-20 12:44:00,37.6,32.6,29.97,SE,142,6.0,12.0,82,0.00,,---,0.00,VWS V13.00,2013-02-20 20:44:00,
2013-02-20 12:49:00,37.9,32.3,29.97,SE,135,7.0,13.0,80,0.00,,---,0.00,VWS V13.00,2013-02-20 20:49:00,
2013-02-20 12:54:00,37.8,32.5,29.97,SSE,147,6.0,13.0,81,0.00,,---,0.00,VWS V13.00,2013-02-20 20:54:00,
2013-02-20 12:59:00,38.8,33.5,29.97,South,170,5.0,9.0,81,0.00,,---,0.00,VWS V13.00,2013-02-20 20:59:00,
2013-02-20 13:04:00,39.3,33.0,29.97,SE,140,5.0,9.0,78,0.00,,---,0.00,VWS V13.00,2013-02-20 21:04:00,
2013-02-20 13:09:00,38.8,31.9,29.97,SSE,163,2.0,10.0,76,0.00,,---,0.00,VWS V13.00,2013-02-20 21:09:00,
2013-02-20 13:14:00,38.3,31.7,29.97,SE,144,2.0,10.0,77,0.00,,---,0.00,VWS V13.00,2013-02-20 21:14:00,
2013-02-20 13:19:00,38.0,31.4,29.97,South,171,6.0,10.0,77,0.00,,---,0.00,VWS V13.00,2013-02-20 21:19:00,
2013-02-20 13:24:00,39.0,32.7,29.96,South,175,6.0,10.0,78,0.00,,---,0.00,VWS V13.00,2013-02-20 21:24:00,
2013-02-20 13:29:00,39.7,32.4,29.96,SE,144,4.0,5.0,75,0.00,,---,0.00,VWS V13.00,2013-02-20 21:29:00,
2013-02-20 13:34:00,39.7,31.4,29.96,ESE,119,2.0,8.0,72,0.00,,---,0.00,VWS V13.00,2013-02-20 21:34:00,
2013-02-20 13:39:00,39.1,31.9,29.97,ESE,117,1.0,8.0,75,0.00,,---,0.00,VWS V13.00,2013-02-20 21:39:00,
2013-02-20 13:44:00,38.8,30.9,29.97,ESE,109,4.0,8.0,73,0.00,,---,0.00,VWS V13.00,2013-02-20 21:44:00,
2013-02-20 13:49:00,38.4,30.9,29.97,ESE,115,3.0,9.0,74,0.00,,---,0.00,VWS V13.00,2013-02-20 21:49:00,
2013-02-20 13:54:00,38.1,30.6,29.96,ESE,115,3.0,9.0,74,0.00,,---,0.00,VWS V13.00,2013-02-20 21:54:00,
2013-02-20 13:59:00,37.9,30.4,29.96,ESE,117,3.0,3.0,74,0.00,,---,0.00,VWS V13.00,2013-02-20 21:59:00,
2013-02-20 14:04:00,38.3,31.1,29.96,SSE,161,6.0,11.0,75,0.00,,---,0.00,VWS V13.00,2013-02-20 22:04:00,
2013-02-20 14:09:00,39.6,31.3,29.96,SW,221,6.0,11.0,72,0.00,,---,0.00,VWS V13.00,2013-02-20 22:09:00,
2013-02-20 14:14:00,40.1,30.8,29.96,SSE,166,4.0,11.0,69,0.00,,---,0.00,VWS V13.00,2013-02-20 22:14:00,
2013-02-20 14:19:00,40.4,31.0,29.96,South,189,6.0,11.0,69,0.00,,---,0.00,VWS V13.00,2013-02-20 22:19:00,
2013-02-20 14:24:00,40.5,30.8,29.96,South,186,3.0,11.0,68,0.00,,---,0.00,VWS V13.00,2013-02-20 22:24:00,
2013-02-20 14:29:00,40.2,30.5,29.96,South,179,3.0,3.0,68,0.00,,---,0.00,VWS V13.00,2013-02-20 22:29:00,
2013-02-20 14:34:00,39.8,30.1,29.96,South,187,2.0,5.0,68,0.00,,---,0.00,VWS V13.00,2013-02-20 22:34:00,
2013-02-20 14:39:00,39.3,30.0,29.96,SSE,163,4.0,7.0,69,0.00,,---,0.00,VWS V13.00,2013-02-20 22:39:00,
2013-02-20 14:44:00,39.2,30.2,29.96,South,183,3.0,7.0,70,0.00,,---,0.00,VWS V13.00,2013-02-20 22:44:00,
2013-02-20 14:49:00,39.0,29.7,29.96,SE,140,3.0,7.0,69,0.00,,---,0.00,VWS V13.00,2013-02-20 22:49:00,
2013-02-20 14:54:00,38.8,29.5,29.96,SSE,153,2.0,7.0,69,0.00,,---,0.00,VWS V13.00,2013-02-20 22:54:00,
2013-02-20 14:59:00,38.5,29.9,29.96,SE,130,3.0,3.0,71,0.00,,---,0.00,VWS V13.00,2013-02-20 22:59:00,
2013-02-20 15:04:00,38.7,29.8,29.97,SSW,208,4.0,6.0,70,0.00,,---,0.00,VWS V13.00,2013-02-20 23:04:00,
2013-02-20 15:09:00,39.2,29.5,29.97,SSE,149,1.0,12.0,68,0.00,,---,0.00,VWS V13.00,2013-02-20 23:09:00,
2013-02-20 15:14:00,39.8,30.5,29.96,South,173,4.0,12.0,69,0.00,,---,0.00,VWS V13.00,2013-02-20 23:14:00,
2013-02-20 15:19:00,40.7,29.9,29.96,South,175,5.0,12.0,65,0.00,,---,0.00,VWS V13.00,2013-02-20 23:19:00,
2013-02-20 15:24:00,40.5,28.9,29.97,SSW,196,6.0,12.0,63,0.00,,---,0.00,VWS V13.00,2013-02-20 23:24:00,
2013-02-20 15:29:00,39.9,28.3,29.96,ESE,112,3.0,3.0,63,0.00,,---,0.00,VWS V13.00,2013-02-20 23:29:00,
2013-02-20 15:34:00,39.6,28.8,29.96,ESE,114,3.0,5.0,65,0.00,,---,0.00,VWS V13.00,2013-02-20 23:34:00,
2013-02-20 15:39:00,39.6,28.4,29.96,SSE,148,2.0,6.0,64,0.00,,---,0.00,VWS V13.00,2013-02-20 23:39:00,
2013-02-20 15:44:00,40.0,28.4,29.96,SE,128,5.0,7.0,63,0.00,,---,0.00,VWS V13.00,2013-02-20 23:44:00,
2013-02-20 15:49:00,39.9,28.0,29.96,South,171,3.0,8.0,62,0.00,,---,0.00,VWS V13.00,2013-02-20 23:49:00,
2013-02-20 15:54:00,39.7,28.1,29.97,South,177,6.0,9.0,63,0.00,,---,0.00,VWS V13.00,2013-02-20 23:54:00,
2013-02-20 15:59:00,39.6,27.7,29.97,South,184,2.0,2.0,62,0.00,,---,0.00,VWS V13.00,2013-02-20 23:59:00,
2013-02-20 16:04:00,39.5,27.6,29.97,South,180,4.0,5.0,62,0.00,,---,0.00,VWS V13.00,2013-02-21 00:04:00,
2013-02-20 16:09:00,39.4,27.5,29.97,SSE,157,1.0,5.0,62,0.00,,---,0.00,VWS V13.00,2013-02-21 00:09:00,
2013-02-20 16:14:00,39.4,27.9,29.97,SSE,154,1.0,5.0,63,0.00,,---,0.00,VWS V13.00,2013-02-21 00:14:00,
2013-02-20 16:19:00,39.3,27.8,29.97,SE,136,0.0,5.0,63,0.00,,---,0.00,VWS V13.00,2013-02-21 00:19:00,
2013-02-20 16:24:00,39.2,28.1,29.97,SE,128,2.0,6.0,64,0.00,,---,0.00,VWS V13.00,2013-02-21 00:24:00,
2013-02-20 16:29:00,39.1,28.0,29.97,SE,128,2.0,6.0,64,0.00,,---,0.00,VWS V13.00,2013-02-21 00:29:00,
2013-02-20 16:34:00,39.0,27.9,29.97,SE,128,0.0,4.0,64,0.00,,---,0.00,VWS V13.00,2013-02-21 00:34:00,
2013-02-20 16:39:00,38.9,27.8,29.97,SE,128,2.0,4.0,64,0.00,,---,0.00,VWS V13.00,2013-02-21 00:39:00,
2013-02-20 16:44:00,38.9,27.8,29.97,SE,128,2.0,4.0,64,0.00,,---,0.00,VWS V13.00,2013-02-21 00:44:00,
2013-02-20 16:49:00,38.9,27.8,29.98,SE,128,2.0,4.0,64,0.00,,---,0.00,VWS V13.00,2013-02-21 00:49:00,
2013-02-20 16:54:00,38.7,27.6,29.98,SSW,213,1.0,4.0,64,0.00,,---,0.00,VWS V13.00,2013-02-21 00:54:00,
2013-02-20 16:59:00,38.5,27.4,29.98,SSW,213,0.0,4.0,64,0.00,,---,0.00,VWS V13.00,2013-02-21 00:59:00,
2013-02-20 17:04:00,38.2,27.1,29.98,SSW,213,0.0,3.0,64,0.00,,---,0.00,VWS V13.00,2013-02-21 01:04:00,
2013-02-20 17:09:00,38.0,27.3,29.98,SSW,213,0.0,3.0,65,0.00,,---,0.00,VWS V13.00,2013-02-21 01:09:00,
2013-02-20 17:14:00,37.7,27.0,29.98,SSW,198,1.0,4.0,65,0.00,,---,0.00,VWS V13.00,2013-02-21 01:14:00,
2013-02-20 17:19:00,37.3,26.6,29.99,SSW,200,0.0,4.0,65,0.00,,---,0.00,VWS V13.00,2013-02-21 01:19:00,
2013-02-20 17:24:00,37.0,26.0,29.99,SSW,199,1.0,4.0,64,0.00,,---,0.00,VWS V13.00,2013-02-21 01:24:00,
2013-02-20 17:29:00,36.6,25.2,29.99,SSW,199,1.0,4.0,63,0.00,,---,0.00,VWS V13.00,2013-02-21 01:29:00,
2013-02-20 17:34:00,36.3,24.9,29.99,SSW,200,0.0,2.0,63,0.00,,---,0.00,VWS V13.00,2013-02-21 01:34:00,
2013-02-20 17:39:00,36.0,24.3,29.99,SSW,200,0.0,2.0,62,0.00,,---,0.00,VWS V13.00,2013-02-21 01:39:00,
2013-02-20 17:44:00,35.7,24.4,30.00,SSW,200,0.0,2.0,63,0.00,,---,0.00,VWS V13.00,2013-02-21 01:44:00,
2013-02-20 17:49:00,35.5,24.9,29.99,SSW,199,0.0,2.0,65,0.00,,---,0.00,VWS V13.00,2013-02-21 01:49:00,
2013-02-20 17:54:00,35.1,25.3,30.00,SSW,199,0.0,2.0,67,0.00,,---,0.00,VWS V13.00,2013-02-21 01:54:00,
2013-02-20 17:59:00,34.8,25.3,30.00,SSW,200,0.0,2.0,68,0.00,,---,0.00,VWS V13.00,2013-02-21 01:59:00,
2013-02-20 18:04:00,34.4,25.3,30.00,SSW,200,0.0,0.0,69,0.00,,---,0.00,VWS V13.00,2013-02-21 02:04:00,
2013-02-20 18:09:00,34.2,25.1,30.01,SSW,200,0.0,1.0,69,0.00,,---,0.00,VWS V13.00,2013-02-21 02:09:00,
2013-02-20 18:14:00,33.8,25.1,30.01,SSW,200,0.0,1.0,70,0.00,,---,0.00,VWS V13.00,2013-02-21 02:14:00,
2013-02-20 18:19:00,33.4,25.0,30.01,SSW,199,2.0,2.0,71,0.00,,---,0.00,VWS V13.00,2013-02-21 02:19:00,
2013-02-20 18:24:00,32.8,24.8,30.01,SSW,200,0.0,2.0,72,0.00,,---,0.00,VWS V13.00,2013-02-21 02:24:00,
2013-02-20 18:28:00,32.3,24.6,30.02,SSW,200,0.0,2.0,73,0.00,,---,0.00,VWS V13.00,2013-02-21 02:28:00,
2013-02-20 18:33:00,31.8,24.5,30.02,SSW,200,2.0,2.0,74,0.00,,---,0.00,VWS V13.00,2013-02-21 02:33:00,
2013-02-20 18:38:00,31.4,24.4,30.02,SSW,199,2.0,2.0,75,0.00,,---,0.00,VWS V13.00,2013-02-21 02:38:00,
2013-02-20 18:43:00,30.9,24.2,30.02,SSW,200,1.0,3.0,76,0.00,,---,0.00,VWS V13.00,2013-02-21 02:43:00,
2013-02-20 18:48:00,30.4,23.8,30.02,SSW,200,2.0,3.0,76,0.00,,---,0.00,VWS V13.00,2013-02-21 02:48:00,
2013-02-20 18:53:00,30.0,23.7,30.03,SSW,200,1.0,3.0,77,0.00,,---,0.00,VWS V13.00,2013-02-21 02:53:00,
2013-02-20 18:58:00,29.7,23.4,30.03,SSW,199,1.0,3.0,77,0.00,,---,0.00,VWS V13.00,2013-02-21 02:58:00,
2013-02-20 19:03:00,29.3,23.3,30.03,SSW,200,1.0,2.0,78,0.00,,---,0.00,VWS V13.00,2013-02-21 03:03:00,
2013-02-20 19:08:00,29.0,23.3,30.03,SSW,200,1.0,2.0,79,0.00,,---,0.00,VWS V13.00,2013-02-21 03:08:00,
2013-02-20 19:13:00,28.6,22.9,30.03,SSW,200,1.0,2.0,79,0.00,,---,0.00,VWS V13.00,2013-02-21 03:13:00,
2013-02-20 19:18:00,28.3,22.9,30.03,SSW,199,1.0,2.0,80,0.00,,---,0.00,VWS V13.00,2013-02-21 03:18:00,
2013-02-20 19:23:00,28.0,22.6,30.03,SSW,200,0.0,2.0,80,0.00,,---,0.00,VWS V13.00,2013-02-21 03:23:00,
2013-02-20 19:28:00,27.8,22.7,30.03,SSW,200,0.0,2.0,81,0.00,,---,0.00,VWS V13.00,2013-02-21 03:28:00,
2013-02-20 19:33:00,27.6,22.8,30.03,SSW,199,1.0,2.0,82,0.00,,---,0.00,VWS V13.00,2013-02-21 03:33:00,
2013-02-20 19:38:00,27.4,22.6,30.03,SSW,200,1.0,2.0,82,0.00,,---,0.00,VWS V13.00,2013-02-21 03:38:00,
2013-02-20 19:43:00,27.2,22.4,30.03,SSW,200,1.0,2.0,82,0.00,,---,0.00,VWS V13.00,2013-02-21 03:43:00,
2013-02-20 19:48:00,27.0,22.2,30.03,SSW,200,1.0,2.0,82,0.00,,---,0.00,VWS V13.00,2013-02-21 03:48:00,
2013-02-20 19:54:00,26.9,22.4,30.04,SSW,200,1.0,2.0,83,0.00,,---,0.00,VWS V13.00,2013-02-21 03:54:00,
2013-02-20 19:59:00,26.7,22.2,30.03,SSW,200,1.0,2.0,83,0.00,,---,0.00,VWS V13.00,2013-02-21 03:59:00,
2013-02-20 20:04:00,26.6,22.1,30.03,SSW,200,1.0,2.0,83,0.00,,---,0.00,VWS V13.00,2013-02-21 04:04:00,
2013-02-20 20:09:00,26.5,22.0,30.03,SSW,200,0.0,2.0,83,0.00,,---,0.00,VWS V13.00,2013-02-21 04:09:00,
2013-02-20 20:14:00,26.3,21.9,30.04,SSW,200,1.0,2.0,83,0.00,,---,0.00,VWS V13.00,2013-02-21 04:14:00,
2013-02-20 20:19:00,26.2,21.8,30.04,SSW,200,0.0,2.0,83,0.00,,---,0.00,VWS V13.00,2013-02-21 04:19:00,
2013-02-20 20:24:00,26.1,21.6,30.04,SSW,199,0.0,2.0,83,0.00,,---,0.00,VWS V13.00,2013-02-21 04:24:00,
2013-02-20 20:29:00,26.0,21.6,30.03,SSW,200,0.0,2.0,83,0.00,,---,0.00,VWS V13.00,2013-02-21 04:29:00,
2013-02-20 20:34:00,25.8,21.6,30.03,SSW,200,1.0,2.0,84,0.00,,---,0.00,VWS V13.00,2013-02-21 04:34:00,
2013-02-20 20:39:00,25.7,21.5,30.04,SSW,199,2.0,2.0,84,0.00,,---,0.00,VWS V13.00,2013-02-21 04:39:00,
2013-02-20 20:44:00,25.5,21.4,30.04,SSW,199,1.0,2.0,84,0.00,,---,0.00,VWS V13.00,2013-02-21 04:44:00,
2013-02-20 20:49:00,25.3,21.1,30.04,SSW,200,2.0,2.0,84,0.00,,---,0.00,VWS V13.00,2013-02-21 04:49:00,
2013-02-20 20:54:00,25.2,21.0,30.04,SSW,200,1.0,2.0,84,0.00,,---,0.00,VWS V13.00,2013-02-21 04:54:00,
2013-02-20 20:59:00,25.0,21.1,30.04,SSW,200,2.0,2.0,85,0.00,,---,0.00,VWS V13.00,2013-02-21 04:59:00,
2013-02-20 21:00:00,24.9,21.0,30.03,SSW,199,2.0,2.0,85,0.00,,---,0.00,VWS V13.00,2013-02-21 05:00:00,
2013-02-20 21:05:00,24.8,20.9,30.04,SSW,200,2.0,3.0,85,0.00,,---,0.00,VWS V13.00,2013-02-21 05:05:00,
2013-02-20 21:10:00,24.7,20.8,30.04,SSW,200,0.0,3.0,85,0.00,,---,0.00,VWS V13.00,2013-02-21 05:10:00,
2013-02-20 21:15:00,24.6,20.7,30.04,SSW,200,0.0,3.0,85,0.00,,---,0.00,VWS V13.00,2013-02-21 05:15:00,
2013-02-20 21:20:00,24.5,20.6,30.03,SSW,199,1.0,3.0,85,0.00,,---,0.00,VWS V13.00,2013-02-21 05:20:00,
2013-02-20 21:25:00,24.5,20.9,30.04,SSW,199,2.0,3.0,86,0.00,,---,0.00,VWS V13.00,2013-02-21 05:25:00,
2013-02-20 21:30:00,24.3,20.7,30.04,SSW,200,1.0,2.0,86,0.00,,---,0.00,VWS V13.00,2013-02-21 05:30:00,
2013-02-20 21:35:00,24.2,20.6,30.04,SSW,200,1.0,2.0,86,0.00,,---,0.00,VWS V13.00,2013-02-21 05:35:00,
2013-02-20 21:40:00,24.0,20.4,30.04,SSW,199,2.0,2.0,86,0.00,,---,0.00,VWS V13.00,2013-02-21 05:40:00,
2013-02-20 21:45:00,23.9,20.3,30.04,SSW,199,1.0,3.0,86,0.00,,---,0.00,VWS V13.00,2013-02-21 05:45:00,
2013-02-20 21:50:00,23.8,20.2,30.04,SSW,200,2.0,3.0,86,0.00,,---,0.00,VWS V13.00,2013-02-21 05:50:00,
2013-02-20 21:55:00,23.7,20.4,30.04,SSW,200,1.0,3.0,87,0.00,,---,0.00,VWS V13.00,2013-02-21 05:55:00,
2013-02-20 22:00:00,23.6,20.3,30.03,SSW,200,2.0,2.0,87,0.00,,---,0.00,VWS V13.00,2013-02-21 06:00:00,
2013-02-20 22:05:00,23.5,19.9,30.03,SSW,200,1.0,3.0,86,0.00,,---,0.00,VWS V13.00,2013-02-21 06:05:00,
2013-02-20 22:10:00,23.3,20.0,30.04,SSW,200,1.0,3.0,87,0.00,,---,0.00,VWS V13.00,2013-02-21 06:10:00,
2013-02-20 22:15:00,23.3,20.0,30.04,SSW,200,1.0,3.0,87,0.00,,---,0.00,VWS V13.00,2013-02-21 06:15:00,
2013-02-20 22:20:00,23.1,19.8,30.04,SSW,199,2.0,3.0,87,0.00,,---,0.00,VWS V13.00,2013-02-21 06:20:00,
2013-02-20 22:25:00,23.0,19.7,30.04,SSW,200,1.0,3.0,87,0.00,,---,0.00,VWS V13.00,2013-02-21 06:25:00,
2013-02-20 22:30:00,22.8,19.5,30.04,SSW,200,1.0,2.0,87,0.00,,---,0.00,VWS V13.00,2013-02-21 06:30:00,
2013-02-20 22:35:00,22.7,19.4,30.04,SSW,200,1.0,2.0,87,0.00,,---,0.00,VWS V13.00,2013-02-21 06:35:00,
2013-02-20 22:40:00,22.6,19.3,30.04,SSW,200,2.0,2.0,87,0.00,,---,0.00,VWS V13.00,2013-02-21 06:40:00,
2013-02-20 22:45:00,22.6,19.3,30.04,SSW,199,2.0,2.0,87,0.00,,---,0.00,VWS V13.00,2013-02-21 06:45:00,
2013-02-20 22:50:00,22.5,19.2,30.04,SSW,200,1.0,2.0,87,0.00,,---,0.00,VWS V13.00,2013-02-21 06:50:00,
2013-02-20 22:55:00,22.4,19.1,30.04,SSW,200,1.0,2.0,87,0.00,,---,0.00,VWS V13.00,2013-02-21 06:55:00,
2013-02-20 23:00:00,22.3,19.0,30.04,SSW,200,0.0,1.0,87,0.00,,---,0.00,VWS V13.00,2013-02-21 07:00:00,
2013-02-20 23:05:00,22.2,19.2,30.04,SSW,200,1.0,1.0,88,0.00,,---,0.00,VWS V13.00,2013-02-21 07:05:00,
2013-02-20 23:10:00,22.2,19.2,30.04,SSW,200,0.0,2.0,88,0.00,,---,0.00,VWS V13.00,2013-02-21 07:10:00,
2013-02-20 23:15:00,22.2,19.2,30.04,SSW,199,0.0,2.0,88,0.00,,---,0.00,VWS V13.00,2013-02-21 07:15:00,
2013-02-20 23:20:00,22.1,19.1,30.04,SSW,200,0.0,2.0,88,0.00,,---,0.00,VWS V13.00,2013-02-21 07:20:00,
2013-02-20 23:25:00,22.1,19.1,30.04,SSW,200,0.0,2.0,88,0.00,,---,0.00,VWS V13.00,2013-02-21 07:25:00,
2013-02-20 23:30:00,22.0,19.0,30.04,SSW,200,1.0,2.0,88,0.00,,---,0.00,VWS V13.00,2013-02-21 07:30:00,
2013-02-20 23:35:00,21.8,18.8,30.04,SSW,200,1.0,2.0,88,0.00,,---,0.00,VWS V13.00,2013-02-21 07:35:00,
2013-02-20 23:40:00,21.6,18.6,30.04,SSW,200,0.0,2.0,88,0.00,,---,0.00,VWS V13.00,2013-02-21 07:40:00,
2013-02-20 23:45:00,21.5,18.5,30.05,SSW,200,0.0,2.0,88,0.00,,---,0.00,VWS V13.00,2013-02-21 07:45:00,
2013-02-20 23:50:00,21.4,18.4,30.05,SSW,199,0.0,2.0,88,0.00,,---,0.00,VWS V13.00,2013-02-21 07:50:00,
2013-02-20 23:55:00,21.3,18.3,30.05,SSW,200,0.0,2.0,88,0.00,,---,0.00,VWS V13.00,2013-02-21 07:55:00,